Volver al catálogo

STARLINK-36210

ActivoComunicacionesVLEO
NORAD 67174·PAYLOAD·🇺🇸 United States

Lanzado Dec 17, 2025 desde Cape Canaveral Space Force Station

Loading…

Próximos Pases (próximas 24 horas)

TLE

ActualizadoSource: CelesTrak SupGP

Época: Sep 14, 2026, 21:01 UTC

1 67174C 25303M   26257.87618056 -.00023309  00000+0 -84409-3 0  2574
2 67174  43.0021 322.4147 0001576 269.7140 224.5355 15.27595525    11

Sigue STARLINK-36210 en tiempo real con AllMySat

Download on the App Store